Location: Unspecified
(37.5444°N, 0.0000°E)
Time: 15:43:44
(UTC+00:00)

CZ-6A DEB - Visible Passes

Search period start: 04 April 2026 00:00
Search period end: 14 April 2026 00:00
Orbit: 742 x 864 km, 88.5° (Epoch: 28 March)

Date Brightness Start Highest point End Pass type
(mag) Time Alt. Az. Time Alt. Az. Time Alt. Az.
4 Apr ? 03:06:29 28° SE 03:08:32 41° E 03:13:24 10° NNE visible
4 Apr ? 04:47:30 15° WSW 04:49:42 19° W 04:53:24 10° NW visible
5 Apr ? 02:40:42 20° ESE 02:42:37 26° E 02:46:51 10° NNE visible
5 Apr ? 04:21:43 25° WSW 04:23:25 31° W 04:28:02 10° NNW visible
6 Apr ? 02:14:52 13° E 02:16:46 16° ENE 02:19:50 10° NE visible
6 Apr ? 03:55:53 41° SW 03:57:12 51° W 04:02:18 10° N visible
7 Apr ? 03:30:02 59° S 03:31:03 85° W 03:36:21 10° N visible
8 Apr ? 03:04:08 52° SE 03:04:59 59° E 03:10:11 10° N visible
8 Apr ? 04:45:08 13° W 04:46:26 14° WNW 04:49:04 10° NW visible
9 Apr ? 02:38:13 34° ESE 02:38:59 36° E 02:43:47 10° NNE visible
9 Apr ? 04:19:14 22° W 04:20:03 23° W 04:24:10 10° NNW visible
10 Apr ? 02:12:17 22° E 02:13:04 23° ENE 02:17:07 10° NNE visible
10 Apr ? 03:53:17 36° W 03:53:45 36° W 03:58:39 10° NNW visible
11 Apr ? 01:46:19 13° E 01:47:14 14° ENE 01:49:53 10° NE visible
11 Apr ? 03:27:19 60° W 03:27:32 60° W 03:32:49 10° N visible
12 Apr ? 03:01:21 83° E 03:01:23 84° E 03:06:46 10° N visible
13 Apr ? 02:35:21 51° E 02:35:21 51° E 02:40:31 10° N visible
13 Apr ? 04:16:20 17° W 04:16:39 17° WNW 04:19:59 10° NW visible
